User: anonymous   Login
Location: Oakhurst
(33.6448°N, 111.9543°W)
Time: 02:50:30
(UTC+00:00)
Language:

Max Valier Satellite - Orbit

View from above orbital plane
View from above orbital plane
View from above satellite
View from above satellite

Ground track
Ground track

The orbit data is extracted from the following two-line orbital elements,

1 42778U 17036P   21216.31017581  .00001503  00000-0  65234-4 0  9996
2 42778  97.2518 263.3469 0012085  16.5100 343.6529 15.23780551228577
Epoch (UTC): 04 August 2021 07:26:39
Eccentricity: 0.0012085
inclination: 97.2518°
perigee height: 486 km
apogee height: 503 km
right ascension of ascending node: 263.3469°
argument of perigee: 16.5100°
revolutions per day: 15.23780551
mean anomaly at epoch: 343.6529°
orbit number at epoch: 22857

The dashed part of the orbit path shows where the satellite is in the earth's shadow,  

DLR